Terug naar catalogus

STARLINK-35884

ActiefCommunicatieVLEO
NORAD 67044·PAYLOAD·🇺🇸 United States

Gelanceerd Dec 11, 2025 vanaf Cape Canaveral Space Force Station

Loading…

Volgende Passages (komende 24 uur)

TLE

VersSource: CelesTrak SupGP

Epoch: Sep 15, 2026, 03:48 UTC

1 67044C 25294Q   26258.15881944 -.00021677  00000+0 -78501-3 0  2582
2 67044  43.0012  47.6717 0001650 273.7464 333.3719 15.27594144    12

Volg STARLINK-35884 in realtime met AllMySat

Download on the App Store